Location: Unspecified
(48.5670°N, 0.0000°E)
Time: 16:30:54
(UTC+00:00)

Transit 4A - Pass Details

Date: 26 August 2019
Orbit: 865 x 980 km, 66.8° (Epoch: 16 September)

Event Time Altitude Azimuth Distance (km) Brightness Sun altitude
Rises 22:06:58 0° 310° (NW) 3,675 12.2 -25.9°
Reaches altitude 10° 22:10:54 10° 334° (NNW) 2,712 11.3 -26.3°
Maximum altitude 22:14:22 15° 7° (N) 2,351 10.6 -26.6°
Drops below altitude 10° 22:17:48 10° 41° (NE) 2,673 10.5 -26.9°
Sets 22:21:38 0° 64° (ENE) 3,591 11.0 -27.2°
